Location: Hohe Wand Wildgehege
(47.8330°N, 16.0440°E)
Time: 20:23:45
(UTC+02:00)

OTV 5 (USA 277) - Visible Passes

Search period start: 24 April 2019 00:00
Search period end: 04 May 2019 00:00
Orbit: 309 x 326 km, 54.5° (Epoch: 21 April)

Date Brightness Start Highest point End Pass type
(mag) Time Alt. Az. Time Alt. Az. Time Alt. Az.
24 Apr ? 21:37:54 10° SW 21:40:37 78° SSE 21:41:45 31° ENE visible
25 Apr ? 21:52:43 10° WSW 21:55:23 48° NNW 21:57:17 16° NE visible
25 Apr ? 23:28:02 10° WNW 23:28:14 11° NW 23:28:14 11° NW visible
26 Apr ? 20:33:09 10° SW 20:35:48 49° SE 20:38:28 10° ENE visible
26 Apr ? 22:07:48 10° W 22:10:15 28° NNW 22:12:13 13° NE visible
26 Apr ? 23:43:04 10° NW 23:43:08 10° NW 23:43:08 10° NW visible
27 Apr ? 20:47:47 10° WSW 20:50:30 69° NNW 20:53:14 10° NE visible
27 Apr ? 22:22:59 10° WNW 22:25:12 21° N 22:26:46 14° NE visible
28 Apr ? 21:02:45 10° W 21:05:19 36° NNW 21:07:53 10° NE visible
28 Apr ? 22:38:05 10° NW 22:40:10 19° N 22:41:06 16° NNE visible
29 Apr ? 21:17:54 10° WNW 21:20:14 24° NNW 21:22:33 10° NE visible
29 Apr ? 22:53:01 10° NW 22:55:10 20° N 22:55:18 20° N visible
30 Apr ? 21:33:03 10° WNW 21:35:12 20° N 21:37:19 10° NE visible
30 Apr ? 23:07:46 10° NW 23:09:25 22° NNW 23:09:25 22° NNW visible
01 May ? 21:48:05 10° NW 21:50:11 19° N 21:52:16 10° NE visible
01 May ? 23:22:26 10° NW 23:23:28 19° NW 23:23:28 19° NW visible
02 May ? 22:02:55 10° NW 22:05:10 22° N 22:06:38 15° NE visible
02 May ? 23:37:05 10° WNW 23:37:31 13° WNW 23:37:31 13° WNW visible
03 May ? 22:17:35 10° NW 22:20:05 31° NNE 22:20:40 27° NE visible
